Regional Weather Roundup
Issued by NWS

Home | Current Version | Previous Version | Graphics & Text | Print | Product List | Glossary On
Versions: 1 2 3 4 5 6 7 8 9 10 11 12 13 14 15 16 17 18 19 20 21 22 23 24 25 26 27 28 29 30 31 32 33 34 35 36 37 38 39 40 41 42 43 44 45 46 47 48 49 50
000
ASUS43 KOAX 231602
RWRNE

WEATHER ROUNDUP FOR NEBRASKA
NATIONAL WEATHER SERVICE OMAHA NE
1100 AM CDT TUE SEP 23 2014

NOTES: SATELLITE DATA IS BEING USED TO AUGMENT CLOUD COVER ABOVE
       12000 FEET.
       "FAIR" INDICATES FEW OR NO CLOUDS BELOW 12,000 FEET WITH NO
       SIGNIFICANT WEATHER AND/OR OBSTRUCTIONS TO VISIBILITY.

  * THESE STATIONS DO NOT REPORT WEATHER SUCH AS RAIN...SNOW OR FOG.

NEZ001>004-019>022-054>056-231700-
NEBRASKA PANHANDLE

CITY           SKY/WX    TMP DP  RH WIND       PRES   REMARKS
SCOTTSBLUFF    SUNNY     68  51  54 VRB6      30.04S
ALLIANCE       SUNNY     71  51  49 W17       30.00S
CHADRON        PTSUNNY   72  52  49 W15       29.96S
KIMBALL        SUNNY     70  48  44 W16       30.08S
SIDNEY         SUNNY     73  50  44 W18       30.07S
$$

NEZ057>060-069>072-079>082-231700-
SOUTHWEST NEBRASKA

CITY           SKY/WX    TMP DP  RH WIND       PRES   REMARKS
NORTH PLATTE   SUNNY     67  58  72 S13G21    30.01F
IMPERIAL       MOSUNNY   70  58  65 SW10      30.03S
LEXINGTON      PTSUNNY   64  57  79 S17       30.05F
MCCOOK         MOSUNNY   65  58  78 S9        30.04F
$$

NEZ005>010-023>029-035>040-094-231700-
NORTH CENTRAL NEBRASKA

CITY           SKY/WX    TMP DP  RH WIND       PRES   REMARKS
VALENTINE      PTSUNNY   67  58  72 S14       29.94F
AINSWORTH      CLOUDY    59  55  87 S15       29.99S
BROKEN BOW       N/A     63  56  78 S13       30.03F
ORD            CLOUDY    59  56  89 S13       30.05F
$$

NEZ041-046>049-061>064-073>077-083>087-231700-
SOUTH CENTRAL NEBRASKA

CITY           SKY/WX    TMP DP  RH WIND       PRES   REMARKS
GRAND ISLAND   CLOUDY    61  56  83 S12       30.09F
AURORA         CLOUDY    61  56  84 S13       30.11S
HASTINGS       CLOUDY    60  54  80 S10       30.09S
KEARNEY *      PTSUNNY   61  55  82 SE13      30.08F
$$

NEZ011>018-030>034-042>045-231700-
NORTHEAST NEBRASKA

CITY           SKY/WX    TMP DP  RH WIND       PRES   REMARKS
NORFOLK        LGT RAIN  58  56  93 SE12      30.11F FOG
ALBION         CLOUDY    57  55  92 S14G20    30.10S
BLAIR          LGT RAIN  60  56  85 S8        30.17F
COLUMBUS *     CLOUDY    57  54  88 S12       30.13F
FREMONT        HVY RAIN  59  56  90 SE8       30.17S
TEKAMAH        LGT RAIN  62  56  80 SE10      30.17S
$$

NEZ050>053-065>068-078-088>093-231700-
SOUTHEAST NEBRASKA

CITY           SKY/WX    TMP DP  RH WIND       PRES   REMARKS
LINCOLN        CLOUDY    60  56  86 SE12      30.16F
OMAHA EPPLEY   LGT RAIN  61  54  77 S14       30.18F
BEATRICE       CLOUDY    61  56  83 SE10      30.16F
FALLS CITY     LGT RAIN  66  54  65 S14       30.19F
NEBRASKA CITY    N/A     63  49  59 S8        30.19F
PLATTSMOUTH    CLOUDY    62  52  70 SE10      30.18F
$$

NEZ044-045-051>053-067-231700-
OMAHA AREA

CITY           SKY/WX    TMP DP  RH WIND       PRES   REMARKS
OMAHA EPPLEY   LGT RAIN  61  54  77 S14       30.18F
BLAIR          LGT RAIN  60  56  85 S8        30.17F
FREMONT        HVY RAIN  59  56  90 SE8       30.17S
MILLARD        LGT RAIN  60  56  88 SE7       30.17F
OFFUTT AFB     CLOUDY    61  59  93 SE10      30.17F
PLATTSMOUTH    CLOUDY    62  52  70 SE10      30.18F
WAHOO          RAIN      58  55  89 SE7       30.16F
$$


USA.gov is the U.S. government's official web portal to all federal, state and local government web resources and services.